Location: Guadanolo
(41.9167°N, 12.9333°E)
Time: 22:39:49
(UTC+00:00)

Ariane Rocket - Pass Details

Date: 16 September 2019
Orbit: 761 x 769 km, 98.8° (Epoch: 17 October)

Event Time Altitude Azimuth Distance (km) Brightness Sun altitude
Rises 17:32:49 0° 147° (SSE) 3,211 5.8 -3.8°
Reaches altitude 10° 17:35:11 10° 142° (SE) 2,290 5.1 -4.2°
Maximum altitude 17:39:59 46° 70° (ENE) 1,026 3.3 -5.1°
Drops below altitude 10° 17:44:48 10° 358° (N) 2,309 5.6 -6.0°
Sets 17:47:11 0° 353° (N) 3,241 6.5 -6.4°
